Hourly Data Report for October 28, 2016

All times are specified in Local Standard Time (LST). Add 1 hour to adjust for Daylight Saving Time where and when it is observed.

PENTICTON A
BRITISH COLUMBIA

49°27'45.000" N
119°36'08.000" W
344.40 m
1126146
71889
YYF

Download Data

Hourly Data (October 2016)
Hourly Data Report for October 28, 2016
Temp Definition
°C
Dew Point Temp Definition
°C
Rel Hum Definition
%
Wind Dir Definition
10's deg

Wind Spd Definition
km/h
Visibility Definition
km
Stn Press Definition
kPa
Hmdx Definition


Wind Chill Definition


Weather Definition


TIME
00:00 Legend Double Dagger 7.2 6.9 98 4 3 24.1 97.20     LegendNANA
01:00 Legend Double Dagger 6.3 6.2 99 36 3 24.1 97.26     Mostly Cloudy
02:00 Legend Double Dagger 6.2 5.9 98 3 6 24.1 97.30     LegendNANA
03:00 Legend Double Dagger 7.2 6.8 97 1 5 24.1 97.35     LegendNANA
04:00 Legend Double Dagger 7.7 7.0 95 1 10 24.1 97.37     Cloudy
05:00 Legend Double Dagger 7.8 6.4 91 36 10 24.1 97.44     LegendNANA
06:00 Legend Double Dagger 9.7 8.0 89 17 16 24.1 97.51     LegendNANA
07:00 Legend Double Dagger 9.7 7.5 86 16 14 24.1 97.52     Mostly Cloudy
08:00 Legend Double Dagger 10.2 7.5 83 16 16 24.1 97.61     LegendNANA
09:00 Legend Double Dagger 10.5 7.8 83 18 14 24.1 97.69     LegendNANA
10:00 Legend Double Dagger 11.3 7.5 77 15 16 24.1 97.71     Mostly Cloudy
11:00 Legend Double Dagger 12.5 7.2 70 17 17 24.1 97.68     LegendNANA
12:00 Legend Double Dagger 12.4 6.3 66 15 14 24.1 97.64     LegendNANA
13:00 Legend Double Dagger 12.5 6.6 67 16 10 24.1 97.64     Cloudy
14:00 Legend Double Dagger 12.4 6.5 67 18 15 24.1 97.63     LegendNANA
15:00 Legend Double Dagger 12.3 6.8 69 18 14 24.1 97.62     LegendNANA
16:00 Legend Double Dagger 12.1 6.4 68 17 14 24.1 97.60     Mostly Cloudy
17:00 Legend Double Dagger 11.6 6.4 70 18 14 24.1 97.61     LegendNANA
18:00 Legend Double Dagger 11.5 6.3 70 17 10 24.1 97.70     LegendNANA
19:00 Legend Double Dagger 10.6 6.2 74 20 9 24.1 97.70     Cloudy
20:00 Legend Double Dagger 10.9 7.1 77 17 11 24.1 97.72     LegendNANA
21:00 Legend Double Dagger 9.9 6.3 78 33 7 24.1 97.73     LegendNANA
22:00 Legend Double Dagger 8.2 6.0 86 33 7 24.1 97.71     Mostly Cloudy
23:00 Legend Double Dagger 6.1 4.6 90 36 5 24.1 97.69     LegendNANA

Notes on Data Quality.

Legend

  • E = Estimated
  • M = Missing
  • NA = Not Available
  • ‡ = Partner data that is not subject to review by the National Climate Archives
Date modified: